Location: Cuiry
(49.3858°N, 3.7708°E)
Time: 00:24:20
(UTC+00:00)

SL-4 R/B - Pass Details

Date: 12 January 2026
Orbit: 384 x 519 km, 51.6° (Epoch: 9 February)

Event Time Altitude Azimuth Distance (km) Brightness Sun altitude
Rises 17:03:33 0° 290° (WNW) 2,651 6.3 -8.5°
Reaches altitude 10° 17:05:48 10° 286° (WNW) 1,755 5.4 -8.9°
Maximum altitude 17:09:44 60° 207° (SSW) 590 2.4 -9.5°
Drops below altitude 10° 17:13:33 10° 127° (SE) 1,703 4.2 -10.0°
Enters shadow 17:15:33 - 124° (SE) 2,500 5.0 -10.3°
